TimeCDT,TemperatureF,Dew PointF,Humidity,Sea Level PressureIn,VisibilityMPH,Wind Direction,Wind SpeedMPH,Gust SpeedMPH,PrecipitationIn,Events,Conditions,WindDirDegrees,DateUTC
12:53 AM,51.1,48.0,89,30.04,10.0,SE,8.1,-,N/A,,Overcast,140,2014-03-19 05:53:00
1:53 AM,51.1,48.0,89,30.05,10.0,SE,4.6,-,N/A,,Overcast,130,2014-03-19 06:53:00
2:53 AM,50.0,48.0,93,30.03,10.0,ESE,5.8,-,N/A,,Overcast,120,2014-03-19 07:53:00
3:53 AM,51.1,48.0,89,30.02,10.0,SE,4.6,-,N/A,,Overcast,130,2014-03-19 08:53:00
4:53 AM,50.0,48.0,93,30.03,10.0,SE,4.6,-,N/A,,Overcast,130,2014-03-19 09:53:00
5:53 AM,51.1,48.9,92,30.06,10.0,SSE,4.6,-,N/A,,Overcast,150,2014-03-19 10:53:00
6:53 AM,51.1,48.0,89,30.08,10.0,SSE,5.8,-,N/A,,Overcast,160,2014-03-19 11:53:00
7:20 AM,51.1,48.9,92,30.09,10.0,Variable,6.9,-,N/A,,Overcast,0,2014-03-19 12:20:00
7:53 AM,51.1,48.0,89,30.10,10.0,SSW,10.4,-,N/A,,Overcast,200,2014-03-19 12:53:00
8:20 AM,51.1,46.9,86,30.11,10.0,South,8.1,-,N/A,,Overcast,180,2014-03-19 13:20:00
8:53 AM,51.1,46.0,83,30.11,10.0,South,8.1,-,N/A,,Overcast,180,2014-03-19 13:53:00
9:53 AM,53.1,46.0,77,30.11,10.0,SSW,10.4,-,N/A,,Mostly Cloudy,210,2014-03-19 14:53:00
10:53 AM,55.0,46.0,72,30.10,10.0,South,6.9,-,N/A,,Overcast,190,2014-03-19 15:53:00
11:00 AM,54.0,46.0,75,30.10,10.0,SSW,9.2,-,N/A,,Overcast,200,2014-03-19 16:00:00
11:21 AM,55.0,46.0,72,30.10,10.0,South,9.2,-,N/A,,Overcast,170,2014-03-19 16:21:00
11:53 AM,55.0,45.0,69,30.10,10.0,SSW,10.4,-,N/A,,Overcast,200,2014-03-19 16:53:00
12:53 PM,57.0,46.9,69,30.09,10.0,SSW,5.8,-,N/A,,Overcast,200,2014-03-19 17:53:00
1:53 PM,60.1,50.0,69,30.06,10.0,SSW,5.8,-,N/A,,Overcast,210,2014-03-19 18:53:00
2:53 PM,60.1,50.0,69,30.06,10.0,WSW,6.9,-,N/A,,Overcast,240,2014-03-19 19:53:00
3:53 PM,63.0,52.0,67,30.04,10.0,West,5.8,-,N/A,,Mostly Cloudy,260,2014-03-19 20:53:00
4:53 PM,63.0,52.0,67,30.05,10.0,Variable,3.5,-,N/A,,Overcast,0,2014-03-19 21:53:00
5:53 PM,63.0,53.1,70,30.04,10.0,West,4.6,-,N/A,,Mostly Cloudy,270,2014-03-19 22:53:00
6:53 PM,61.0,53.1,75,30.06,9.0,Calm,Calm,-,N/A,,Clear,0,2014-03-19 23:53:00
7:53 PM,55.9,52.0,87,30.06,8.0,Calm,Calm,-,N/A,,Clear,0,2014-03-20 00:53:00
8:53 PM,54.0,52.0,93,30.07,6.0,Calm,Calm,-,N/A,,Clear,0,2014-03-20 01:53:00
9:53 PM,52.0,51.1,97,30.09,5.0,Calm,Calm,-,N/A,,Partly Cloudy,0,2014-03-20 02:53:00
10:53 PM,51.1,50.0,96,30.09,5.0,Calm,Calm,-,N/A,,Clear,0,2014-03-20 03:53:00
11:53 PM,51.1,50.0,96,30.09,4.0,Calm,Calm,-,N/A,,Mostly Cloudy,0,2014-03-20 04:53:00